Wetterdaten: Dienstag, 26.04.2016
Datum Zeit Temp. A. Mod.Schuppen Aussentemp2 Feuchte A. Luftdruck Regen Wind Richtung Richtung Sonnenschein Helligkeit Solar
26.04.2016 00:05 4,1 C 3,7 C 5,9 C 87 % 999,8 hPa 0,0 l/m 21,5 km/h (4 Bft) W22.5 265 0 min 0 lux 0 W/m
26.04.2016 00:09 4,0 C 3,6 C 6,1 C 87 % 999,8 hPa 0,0 l/m 22,3 km/h (4 Bft) W-SW22.5 255 0 min 0 lux 0 W/m
26.04.2016 00:14 4,0 C 3,5 C 6,0 C 87 % 999,8 hPa 0,0 l/m 23,3 km/h (4 Bft) W45 265 0 min 0 lux 0 W/m
26.04.2016 00:20 4,0 C 3,4 C 6,2 C 87 % 999,8 hPa 0,0 l/m 20,3 km/h (4 Bft) W22.5 280 0 min 0 lux 0 W/m
26.04.2016 00:25 3,9 C 3,5 C 6,4 C 87 % 1000,8 hPa 0,0 l/m 20,2 km/h (4 Bft) W22.5 275 0 min 0 lux 0 W/m
26.04.2016 00:29 3,9 C 3,4 C 6,3 C 86 % 1000,8 hPa 0,0 l/m 18,6 km/h (3 Bft) W22.5 270 0 min 0 lux 0 W/m
26.04.2016 00:34 3,9 C 3,4 C 6,5 C 86 % 1000,8 hPa 0,0 l/m 22,4 km/h (4 Bft) W22.5 280 0 min 0 lux 0 W/m
26.04.2016 00:39 3,9 C 3,5 C 6,5 C 86 % 1000,8 hPa 0,0 l/m 23,1 km/h (4 Bft) W-NW22.5 285 0 min 0 lux 0 W/m
26.04.2016 00:44 3,9 C 3,5 C 6,5 C 86 % 1000,8 hPa 0,0 l/m 17,0 km/h (3 Bft) W22.5 275 0 min 0 lux 0 W/m
26.04.2016 00:50 3,9 C 3,5 C 6,5 C 85 % 1000,8 hPa 0,0 l/m 23,1 km/h (4 Bft) W22.5 280 0 min 0 lux 0 W/m
26.04.2016 00:55 3,9 C 3,3 C 6,6 C 85 % 1000,8 hPa 0,0 l/m 19,8 km/h (3 Bft) W22.5 280 0 min 0 lux 0 W/m
26.04.2016 00:59 3,8 C 3,2 C 6,7 C 85 % 999,8 hPa 0,0 l/m 18,7 km/h (3 Bft) W22.5 280 0 min 0 lux 0 W/m
26.04.2016 01:04 3,7 C 3,2 C 6,6 C 84 % 999,8 hPa 0,0 l/m 19,8 km/h (3 Bft) W-NW22.5 295 0 min 0 lux 0 W/m
26.04.2016 01:10 3,7 C 3,0 C 6,6 C 84 % 999,8 hPa 0,0 l/m 18,6 km/h (3 Bft) W22.5 275 0 min 0 lux 0 W/m
26.04.2016 01:15 3,6 C 2,8 C 6,4 C 84 % 999,8 hPa 0,0 l/m 16,3 km/h (3 Bft) W-NW22.5 285 0 min 0 lux 0 W/m
26.04.2016 01:19 3,6 C 2,8 C 6,6 C 84 % 999,8 hPa 0,0 l/m 21,6 km/h (4 Bft) W22.5 280 0 min 0 lux 0 W/m
26.04.2016 01:24 3,5 C 2,6 C 6,5 C 84 % 999,8 hPa 0,0 l/m 15,9 km/h (3 Bft) W-NW22.5 290 0 min 0 lux 0 W/m
26.04.2016 01:29 3,5 C 2,4 C 6,2 C 84 % 999,8 hPa 0,0 l/m 18,9 km/h (3 Bft) W22.5 275 0 min 0 lux 0 W/m
26.04.2016 01:35 3,4 C 2,4 C 6,1 C 84 % 999,8 hPa 0,0 l/m 15,6 km/h (3 Bft) W-SW22.5 255 0 min 0 lux 0 W/m
26.04.2016 01:40 3,3 C 2,3 C 6,1 C 84 % 999,8 hPa 0,0 l/m 18,5 km/h (3 Bft) W45 260 0 min 0 lux 0 W/m
26.04.2016 01:44 3,3 C 2,1 C 6,0 C 84 % 999,8 hPa 0,0 l/m 18,7 km/h (3 Bft) W22.5 265 0 min 0 lux 0 W/m
26.04.2016 01:49 3,3 C 2,2 C 6,0 C 84 % 1000,8 hPa 0,0 l/m 24,5 km/h (4 Bft) W22.5 265 0 min 0 lux 0 W/m
26.04.2016 01:54 3,3 C 2,1 C 5,8 C 84 % 1000,8 hPa 0,0 l/m 21,4 km/h (4 Bft) W22.5 265 0 min 0 lux 0 W/m
26.04.2016 01:59 3,3 C 2,1 C 5,8 C 84 % 1000,8 hPa 0,0 l/m 20,0 km/h (4 Bft) W-NW45 285 0 min 0 lux 0 W/m
26.04.2016 02:04 3,2 C 2,1 C 6,1 C 84 % 999,8 hPa 0,0 l/m 20,0 km/h (4 Bft) W-NW45 285 0 min 0 lux 0 W/m
26.04.2016 02:09 3,1 C 1,9 C 6,2 C 84 % 999,8 hPa 0,0 l/m 22,1 km/h (4 Bft) W22.5 275 0 min 0 lux 0 W/m
26.04.2016 02:14 3,0 C 1,7 C 5,8 C 84 % 999,8 hPa 0,0 l/m 19,1 km/h (3 Bft) W22.5 280 0 min 0 lux 0 W/m
26.04.2016 02:19 3,0 C 1,6 C 5,6 C 84 % 999,8 hPa 0,0 l/m 23,7 km/h (4 Bft) W-SW45 255 0 min 0 lux 0 W/m
26.04.2016 02:25 2,9 C 1,5 C 5,8 C 84 % 999,8 hPa 0,0 l/m 22,5 km/h (4 Bft) W22.5 265 0 min 0 lux 0 W/m
26.04.2016 02:30 2,8 C 1,3 C 6,0 C 84 % 999,8 hPa 0,0 l/m 16,5 km/h (3 Bft) W22.5 270 0 min 0 lux 0 W/m
26.04.2016 02:34 2,7 C 1,2 C 5,6 C 84 % 999,8 hPa 0,0 l/m 19,6 km/h (3 Bft) W22.5 275 0 min 0 lux 0 W/m
26.04.2016 02:39 2,8 C 1,4 C 5,3 C 84 % 999,8 hPa 0,0 l/m 22,8 km/h (4 Bft) W22.5 260 0 min 0 lux 0 W/m
26.04.2016 02:44 2,7 C 1,4 C 5,8 C 84 % 999,8 hPa 0,0 l/m 24,0 km/h (4 Bft) W22.5 280 0 min 0 lux 0 W/m
26.04.2016 02:50 2,7 C 1,2 C 5,5 C 84 % 999,8 hPa 0,0 l/m 21,5 km/h (4 Bft) W22.5 275 0 min 0 lux 0 W/m
26.04.2016 02:55 2,7 C 1,1 C 5,2 C 84 % 999,8 hPa 0,0 l/m 23,6 km/h (4 Bft) W22.5 260 0 min 0 lux 0 W/m
26.04.2016 02:59 2,7 C 1,1 C 5,0 C 84 % 999,8 hPa 0,0 l/m 22,5 km/h (4 Bft) W-SW22.5 250 0 min 0 lux 0 W/m
26.04.2016 03:04 2,7 C 1,2 C 5,1 C 84 % 999,8 hPa 0,0 l/m 20,6 km/h (4 Bft) W-SW22.5 245 0 min 0 lux 0 W/m
26.04.2016 03:10 2,6 C 1,0 C 5,1 C 84 % 999,8 hPa 0,0 l/m 19,7 km/h (3 Bft) W-SW22.5 255 0 min 0 lux 0 W/m
26.04.2016 03:15 2,6 C 1,0 C 5,1 C 84 % 999,8 hPa 0,0 l/m 21,1 km/h (4 Bft) W-SW22.5 250 0 min 0 lux 0 W/m
26.04.2016 03:19 2,5 C 0,8 C 5,0 C 84 % 999,8 hPa 0,0 l/m 18,6 km/h (3 Bft) W-SW22.5 255 0 min 0 lux 0 W/m
26.04.2016 03:24 2,5 C 0,7 C 4,9 C 84 % 999,8 hPa 0,0 l/m 23,5 km/h (4 Bft) W-SW22.5 250 0 min 0 lux 0 W/m
26.04.2016 03:29 2,4 C 0,5 C 4,7 C 84 % 999,8 hPa 0,0 l/m 20,9 km/h (4 Bft) W-SW22.5 250 0 min 0 lux 0 W/m
26.04.2016 03:34 2,3 C 0,5 C 4,8 C 84 % 999,8 hPa 0,0 l/m 24,2 km/h (4 Bft) W-SW22.5 255 0 min 0 lux 0 W/m
26.04.2016 03:40 2,3 C 0,3 C 4,7 C 84 % 999,8 hPa 0,0 l/m 24,9 km/h (4 Bft) W-SW22.5 245 0 min 0 lux 0 W/m
26.04.2016 03:45 2,3 C 0,1 C 4,7 C 84 % 999,8 hPa 0,0 l/m 24,1 km/h (4 Bft) W-SW45 250 0 min 0 lux 0 W/m
26.04.2016 03:49 2,3 C 0,1 C 4,4 C 84 % 999,8 hPa 0,0 l/m 21,6 km/h (4 Bft) W-SW22.5 250 0 min 0 lux 0 W/m
26.04.2016 03:54 2,3 C 0,0 C 4,5 C 84 % 999,8 hPa 0,0 l/m 22,7 km/h (4 Bft) W-SW22.5 245 0 min 0 lux 0 W/m
26.04.2016 03:59 2,1 C 0,0 C 4,3 C 84 % 999,8 hPa 0,0 l/m 18,0 km/h (3 Bft) W-SW22.5 240 0 min 0 lux 0 W/m
26.04.2016 04:05 2,1 C 0,0 C 4,3 C 84 % 999,8 hPa 0,0 l/m 21,5 km/h (4 Bft) W-SW45 240 0 min 0 lux 0 W/m
26.04.2016 04:09 1,9 C 0,0 C 4,5 C 84 % 999,8 hPa 0,0 l/m 17,6 km/h (3 Bft) W-SW45 240 0 min 0 lux 0 W/m
26.04.2016 04:14 1,9 C 0,0 C 4,3 C 85 % 999,8 hPa 0,0 l/m 17,8 km/h (3 Bft) W-SW22.5 240 0 min 0 lux 0 W/m
26.04.2016 04:19 1,8 C 0,1 C 4,2 C 85 % 999,8 hPa 0,0 l/m 23,5 km/h (4 Bft) W-SW22.5 240 0 min 0 lux 0 W/m
26.04.2016 04:25 1,8 C 0,1 C 4,2 C 85 % 999,8 hPa 0,0 l/m 20,1 km/h (4 Bft) SW22.5 235 0 min 0 lux 0 W/m
26.04.2016 04:30 1,8 C 0,0 C 4,1 C 85 % 999,8 hPa 0,0 l/m 22,5 km/h (4 Bft) SW22.5 235 0 min 0 lux 0 W/m
26.04.2016 04:34 1,7 C -0,1 C 4,1 C 85 % 999,8 hPa 0,0 l/m 20,5 km/h (4 Bft) SW22.5 235 0 min 0 lux 0 W/m
26.04.2016 04:39 1,6 C 0,0 C 4,1 C 85 % 999,8 hPa 0,0 l/m 22,5 km/h (4 Bft) SW45 235 0 min 0 lux 0 W/m
26.04.2016 04:44 1,7 C -0,1 C 4,0 C 85 % 999,8 hPa 0,0 l/m 24,2 km/h (4 Bft) SW45 235 0 min 0 lux 0 W/m
26.04.2016 04:49 1,7 C 0,0 C 4,1 C 85 % 999,8 hPa 0,0 l/m 19,0 km/h (3 Bft) SW22.5 230 0 min 0 lux 0 W/m
26.04.2016 04:55 1,7 C 0,0 C 4,2 C 85 % 999,8 hPa 0,0 l/m 22,4 km/h (4 Bft) SW22.5 225 0 min 0 lux 0 W/m
26.04.2016 05:00 1,7 C 0,0 C 4,2 C 85 % 999,8 hPa 0,0 l/m 21,6 km/h (4 Bft) SW22.5 230 0 min 0 lux 0 W/m
26.04.2016 05:04 1,7 C 0,0 C 4,2 C 86 % 999,8 hPa 0,0 l/m 19,1 km/h (3 Bft) SW22.5 225 0 min 0 lux 0 W/m
26.04.2016 05:10 1,6 C 0,0 C 4,3 C 86 % 998,8 hPa 0,0 l/m 20,7 km/h (4 Bft) SW22.5 220 0 min 0 lux 0 W/m
26.04.2016 05:15 1,5 C 0,0 C 4,2 C 86 % 998,8 hPa 0,0 l/m 18,0 km/h (3 Bft) SW22.5 220 0 min 0 lux 0 W/m
26.04.2016 05:19 1,6 C 0,1 C 4,1 C 86 % 998,8 hPa 0,0 l/m 26,5 km/h (4 Bft) SW22.5 225 0 min 0 lux 0 W/m
26.04.2016 05:24 1,5 C 0,1 C 4,1 C 86 % 998,8 hPa 0,0 l/m 22,4 km/h (4 Bft) SW22.5 225 0 min 0 lux 0 W/m
26.04.2016 05:29 1,5 C 0,2 C 4,0 C 87 % 998,8 hPa 0,0 l/m 25,3 km/h (4 Bft) SW45 225 0 min 0 lux 0 W/m
26.04.2016 05:34 1,6 C 0,4 C 3,9 C 87 % 998,8 hPa 0,0 l/m 25,1 km/h (4 Bft) SW45 220 0 min 0 lux 0 W/m
26.04.2016 05:40 1,6 C 0,3 C 3,9 C 87 % 998,8 hPa 0,0 l/m 23,1 km/h (4 Bft) SW67.5 225 0 min 0 lux 0 W/m
26.04.2016 05:45 1,5 C 0,3 C 3,9 C 87 % 998,8 hPa 0,0 l/m 21,6 km/h (4 Bft) SW45 215 0 min 0 lux 0 W/m
26.04.2016 05:49 1,6 C 0,5 C 4,0 C 87 % 998,8 hPa 0,0 l/m 25,6 km/h (4 Bft) SW22.5 230 0 min 0 lux 0 W/m
26.04.2016 05:54 1,7 C 0,8 C 3,9 C 87 % 998,8 hPa 0,0 l/m 23,8 km/h (4 Bft) SW45 225 0 min 0 lux 0 W/m
26.04.2016 05:59 1,7 C 0,9 C 3,8 C 87 % 998,8 hPa 0,0 l/m 26,6 km/h (4 Bft) SW45 230 0 min 0 lux 0 W/m
26.04.2016 06:05 1,7 C 0,9 C 3,8 C 87 % 998,8 hPa 0,0 l/m 28,9 km/h (5 Bft) SW45 225 0 min 0 lux 0 W/m
26.04.2016 06:09 1,8 C 0,8 C 3,8 C 87 % 998,8 hPa 0,0 l/m 25,5 km/h (4 Bft) SW45 230 0 min 253 lux 0 W/m
26.04.2016 06:14 1,7 C 0,6 C 3,9 C 86 % 998,8 hPa 0,0 l/m 26,8 km/h (4 Bft) SW45 230 0 min 253 lux 0 W/m
26.04.2016 06:19 1,6 C 0,5 C 4,0 C 86 % 998,8 hPa 0,0 l/m 28,1 km/h (5 Bft) SW45 235 0 min 253 lux 0 W/m
26.04.2016 06:25 1,6 C 0,4 C 4,0 C 86 % 998,8 hPa 0,0 l/m 23,3 km/h (4 Bft) SW22.5 230 0 min 253 lux 2 W/m
26.04.2016 06:30 1,7 C 0,5 C 4,0 C 86 % 998,8 hPa 0,0 l/m 21,6 km/h (4 Bft) SW45 215 0 min 253 lux 2 W/m
26.04.2016 06:34 1,7 C 0,6 C 3,9 C 86 % 998,8 hPa 0,0 l/m 22,0 km/h (4 Bft) SW45 220 0 min 253 lux 2 W/m
26.04.2016 06:39 1,7 C 0,5 C 4,0 C 86 % 998,8 hPa 0,0 l/m 21,6 km/h (4 Bft) SW45 220 0 min 253 lux 2 W/m
26.04.2016 06:44 1,7 C 0,4 C 4,0 C 86 % 998,8 hPa 0,0 l/m 25,6 km/h (4 Bft) SW45 220 0 min 253 lux 2 W/m
26.04.2016 06:49 1,7 C 0,5 C 4,0 C 86 % 998,8 hPa 0,0 l/m 25,5 km/h (4 Bft) SW45 215 0 min 253 lux 2 W/m
26.04.2016 06:55 1,7 C 0,4 C 4,1 C 86 % 998,8 hPa 0,0 l/m 24,5 km/h (4 Bft) SW22.5 215 0 min 253 lux 2 W/m
26.04.2016 06:59 1,8 C 0,4 C 4,2 C 86 % 998,8 hPa 0,0 l/m 24,8 km/h (4 Bft) SW45 225 0 min 253 lux 2 W/m
26.04.2016 07:04 1,8 C 0,6 C 4,0 C 86 % 998,8 hPa 0,0 l/m 25,7 km/h (4 Bft) SW45 220 0 min 253 lux 2 W/m
26.04.2016 07:10 1,8 C 0,6 C 4,1 C 86 % 998,8 hPa 0,0 l/m 22,8 km/h (4 Bft) SW22.5 220 0 min 253 lux 2 W/m
26.04.2016 07:15 1,8 C 0,7 C 4,0 C 85 % 998,8 hPa 0,0 l/m 29,0 km/h (5 Bft) SW45 215 0 min 253 lux 2 W/m
26.04.2016 07:19 1,9 C 1,0 C 3,9 C 85 % 998,8 hPa 0,0 l/m 31,7 km/h (5 Bft) SW45 215 0 min 5,02 klux 34 W/m
26.04.2016 07:24 2,0 C 1,1 C 3,9 C 85 % 998,8 hPa 0,0 l/m 30,7 km/h (5 Bft) SW67.5 220 0 min 5,02 klux 34 W/m
26.04.2016 07:29 2,1 C 1,3 C 4,0 C 85 % 998,8 hPa 0,0 l/m 29,5 km/h (5 Bft) S-SW67.5 205 0 min 5,02 klux 34 W/m
26.04.2016 07:34 2,2 C 1,4 C 4,0 C 84 % 998,8 hPa 0,0 l/m 27,4 km/h (5 Bft) SW45 215 0 min 5,02 klux 34 W/m
26.04.2016 07:40 2,3 C 1,8 C 4,1 C 84 % 998,8 hPa 0,0 l/m 29,1 km/h (5 Bft) S-SW45 210 0 min 5,02 klux 34 W/m
26.04.2016 07:45 2,3 C 1,7 C 4,2 C 84 % 998,8 hPa 0,0 l/m 36,8 km/h (5 Bft) SW45 225 0 min 5,02 klux 34 W/m
26.04.2016 07:49 2,3 C 1,7 C 4,0 C 83 % 997,8 hPa 0,0 l/m 36,8 km/h (5 Bft) SW45 225 0 min 5,02 klux 34 W/m
26.04.2016 07:54 2,7 C 2,2 C 4,0 C 83 % 997,8 hPa 0,0 l/m 31,3 km/h (5 Bft) SW45 225 0 min 5,02 klux 34 W/m
26.04.2016 07:59 2,7 C 2,0 C 4,2 C 83 % 997,8 hPa 0,0 l/m 29,3 km/h (5 Bft) SW45 220 0 min 5,02 klux 34 W/m
26.04.2016 08:04 2,8 C 2,9 C 4,1 C 82 % 997,8 hPa 0,0 l/m 35,4 km/h (5 Bft) SW45 230 5 min 26,2 klux 179 W/m
26.04.2016 08:09 3,1 C 3,9 C 4,2 C 81 % 997,8 hPa 0,0 l/m 31,3 km/h (5 Bft) SW45 225 5 min 26,2 klux 179 W/m
26.04.2016 08:14 3,5 C 4,4 C 4,2 C 80 % 997,8 hPa 0,0 l/m 36,9 km/h (5 Bft) SW22.5 215 5 min 39,5 klux 270 W/m
26.04.2016 08:19 3,5 C 4,6 C 4,2 C 80 % 997,8 hPa 0,0 l/m 30,6 km/h (5 Bft) SW67.5 215 5 min 39,5 klux 270 W/m
26.04.2016 08:25 3,5 C 4,2 C 4,4 C 79 % 997,8 hPa 0,0 l/m 35,9 km/h (5 Bft) SW22.5 220 6 min 39,5 klux 270 W/m
26.04.2016 08:30 3,5 C 4,4 C 4,3 C 79 % 997,8 hPa 0,0 l/m 43,1 km/h (6 Bft) W-SW45 240 5 min 39,5 klux 270 W/m
26.04.2016 08:34 3,5 C 4,7 C 4,3 C 78 % 997,8 hPa 0,0 l/m 39,4 km/h (6 Bft) W-SW45 240 0 min 12,2 klux 83 W/m
26.04.2016 08:39 3,5 C 4,8 C 4,3 C 78 % 997,8 hPa 0,0 l/m 41,1 km/h (6 Bft) W-SW45 245 0 min 8,73 klux 60 W/m
26.04.2016 08:44 3,6 C 4,7 C 4,4 C 79 % 997,8 hPa 0,0 l/m 40,1 km/h (6 Bft) W-SW45 250 0 min 8,73 klux 60 W/m
26.04.2016 08:50 3,5 C 4,4 C 4,7 C 78 % 997,8 hPa 0,0 l/m 39,7 km/h (6 Bft) SW67.5 225 0 min 8,73 klux 60 W/m
26.04.2016 08:55 3,6 C 4,6 C 4,9 C 79 % 997,8 hPa 0,0 l/m 34,9 km/h (5 Bft) W-SW22.5 250 0 min 8,73 klux 60 W/m
26.04.2016 08:59 3,7 C 4,5 C 5,0 C 78 % 997,8 hPa 0,0 l/m 48,3 km/h (6 Bft) W-SW45 255 0 min 10,0 klux 68 W/m
26.04.2016 09:04 3,7 C 4,3 C 5,0 C 78 % 997,8 hPa 0,0 l/m 38,5 km/h (6 Bft) W-SW45 255 0 min 10,0 klux 68 W/m
26.04.2016 09:10 3,6 C 4,1 C 5,1 C 79 % 997,8 hPa 0,0 l/m 36,0 km/h (5 Bft) W-SW45 245 0 min 3,74 klux 26 W/m
26.04.2016 09:15 3,1 C 3,0 C 5,0 C 81 % 997,8 hPa 0,0 l/m 46,0 km/h (6 Bft) W-SW45 245 0 min 3,74 klux 26 W/m
26.04.2016 09:19 3,0 C 3,2 C 5,0 C 82 % 997,8 hPa 0,1 l/m 42,8 km/h (6 Bft) W-SW45 255 0 min 10,8 klux 74 W/m
26.04.2016 09:24 3,0 C 3,5 C 5,1 C 82 % 997,8 hPa 0,0 l/m 38,8 km/h (6 Bft) W-SW45 250 0 min 10,8 klux 74 W/m
26.04.2016 09:29 3,1 C 3,4 C 5,1 C 82 % 997,8 hPa 0,0 l/m 27,5 km/h (5 Bft) W-SW22.5 255 0 min 3,34 klux 23 W/m
26.04.2016 09:35 3,3 C 3,6 C 5,2 C 82 % 997,8 hPa 0,0 l/m 37,4 km/h (5 Bft) W45 260 0 min 8,15 klux 56 W/m
26.04.2016 09:40 3,5 C 4,2 C 5,3 C 82 % 997,8 hPa 0,1 l/m 37,4 km/h (5 Bft) W-SW45 250 0 min 11,9 klux 81 W/m
26.04.2016 09:44 3,7 C 4,8 C 5,3 C 81 % 997,8 hPa 0,0 l/m 39,3 km/h (6 Bft) W-SW22.5 250 0 min 11,9 klux 81 W/m
26.04.2016 09:49 3,8 C 5,1 C 5,4 C 81 % 997,8 hPa 0,0 l/m 36,6 km/h (5 Bft) W22.5 265 0 min 11,9 klux 81 W/m
26.04.2016 09:54 3,9 C 5,2 C 5,4 C 81 % 997,8 hPa 0,0 l/m 29,2 km/h (5 Bft) W-SW45 255 0 min 11,9 klux 81 W/m
26.04.2016 09:59 3,9 C 5,0 C 5,4 C 80 % 997,8 hPa 0,0 l/m 41,5 km/h (6 Bft) W-SW67.5 245 0 min 11,9 klux 81 W/m
26.04.2016 10:04 4,1 C 5,6 C 5,4 C 80 % 997,8 hPa 0,0 l/m 37,7 km/h (5 Bft) W-SW22.5 250 0 min 11,9 klux 81 W/m
26.04.2016 10:09 4,3 C 5,8 C 5,5 C 80 % 997,8 hPa 0,0 l/m 34,6 km/h (5 Bft) W-SW45 250 0 min 11,9 klux 81 W/m
26.04.2016 10:14 4,3 C 6,0 C 5,5 C 80 % 997,8 hPa 0,0 l/m 43,8 km/h (6 Bft) W-SW45 250 0 min 16,5 klux 113 W/m
26.04.2016 10:20 4,3 C 5,8 C 5,5 C 80 % 997,8 hPa 0,0 l/m 28,9 km/h (5 Bft) SW67.5 235 0 min 7,37 klux 50 W/m
26.04.2016 10:25 4,3 C 6,8 C 5,5 C 80 % 997,8 hPa 0,0 l/m 34,4 km/h (5 Bft) W-SW45 240 0 min 18,9 klux 129 W/m
26.04.2016 10:29 4,3 C 7,3 C 5,6 C 80 % 997,8 hPa 0,0 l/m 34,5 km/h (5 Bft) W-SW22.5 245 0 min 18,9 klux 129 W/m
26.04.2016 10:34 4,6 C 8,2 C 5,7 C 80 % 997,8 hPa 0,0 l/m 39,1 km/h (6 Bft) W-SW45 240 0 min 26,4 klux 181 W/m
26.04.2016 10:39 4,9 C 8,6 C 5,7 C 79 % 997,8 hPa 0,0 l/m 38,2 km/h (6 Bft) SW45 235 0 min 25,3 klux 173 W/m
26.04.2016 10:44 5,3 C 10,3 C 5,8 C 79 % 997,8 hPa 0,0 l/m 37,4 km/h (5 Bft) W-SW67.5 240 0 min 31,1 klux 213 W/m
26.04.2016 10:50 5,2 C 9,4 C 5,8 C 77 % 997,8 hPa 0,0 l/m 31,6 km/h (5 Bft) W-SW45 240 0 min 31,1 klux 213 W/m
26.04.2016 10:55 5,4 C 9,6 C 5,9 C 78 % 997,8 hPa 0,0 l/m 35,2 km/h (5 Bft) W-SW45 245 0 min 31,1 klux 213 W/m
26.04.2016 10:59 5,3 C 7,2 C 5,9 C 77 % 997,8 hPa 0,0 l/m 36,6 km/h (5 Bft) W-SW45 250 0 min 31,1 klux 213 W/m
26.04.2016 11:05 4,9 C 6,4 C 5,8 C 78 % 997,8 hPa 0,0 l/m 40,3 km/h (6 Bft) W-SW45 255 0 min 31,1 klux 213 W/m
26.04.2016 11:10 5,1 C 6,6 C 5,9 C 79 % 997,8 hPa 0,0 l/m 35,9 km/h (5 Bft) W-SW67.5 250 0 min 31,1 klux 213 W/m
26.04.2016 11:14 5,3 C 7,2 C 5,9 C 78 % 997,8 hPa 0,0 l/m 43,2 km/h (6 Bft) W-SW45 245 0 min 31,1 klux 213 W/m
26.04.2016 11:19 5,4 C 7,9 C 6,0 C 76 % 997,8 hPa 0,0 l/m 40,5 km/h (6 Bft) W-SW22.5 245 0 min 31,1 klux 213 W/m
26.04.2016 11:24 5,7 C 8,7 C 6,1 C 77 % 997,8 hPa 0,0 l/m 27,6 km/h (5 Bft) SW67.5 230 0 min 31,1 klux 213 W/m
26.04.2016 11:29 5,8 C 9,2 C 6,1 C 75 % 997,8 hPa 0,0 l/m 42,2 km/h (6 Bft) W-SW45 245 0 min 27,1 klux 185 W/m
26.04.2016 11:35 6,0 C 9,9 C 6,1 C 76 % 997,8 hPa 0,0 l/m 39,4 km/h (6 Bft) W-SW45 240 0 min 27,1 klux 185 W/m
26.04.2016 11:39 5,9 C 9,3 C 6,1 C 74 % 997,8 hPa 0,0 l/m 50,8 km/h (7 Bft) SW67.5 235 0 min 27,1 klux 185 W/m
26.04.2016 11:44 5,8 C 9,6 C 6,1 C 74 % 997,8 hPa 0,0 l/m 41,3 km/h (6 Bft) W-SW22.5 245 0 min 19,8 klux 135 W/m
26.04.2016 11:49 5,9 C 8,9 C 6,1 C 75 % 997,8 hPa 0,0 l/m 39,4 km/h (6 Bft) W45 265 0 min 17,6 klux 120 W/m
26.04.2016 11:54 5,7 C 9,2 C 6,0 C 77 % 997,8 hPa 0,0 l/m 45,6 km/h (6 Bft) W-SW45 250 0 min 17,6 klux 120 W/m
26.04.2016 12:00 6,6 C 15,0 C 6,3 C 74 % 997,8 hPa 0,0 l/m 40,0 km/h (6 Bft) W-SW45 245 6 min 75,2 klux 514 W/m
26.04.2016 12:04 6,6 C 15,6 C 6,4 C 72 % 997,8 hPa 0,0 l/m 39,2 km/h (6 Bft) W-SW22.5 255 0 min 48,0 klux 328 W/m
26.04.2016 12:09 6,5 C 13,3 C 6,4 C 72 % 997,8 hPa 0,0 l/m 48,1 km/h (6 Bft) W45 270 0 min 27,3 klux 187 W/m
26.04.2016 12:15 6,1 C 10,6 C 6,2 C 72 % 997,8 hPa 0,0 l/m 46,5 km/h (6 Bft) W-SW45 255 0 min 23,4 klux 160 W/m
26.04.2016 12:20 5,9 C 8,5 C 6,1 C 74 % 997,8 hPa 0,0 l/m 46,5 km/h (6 Bft) W-SW45 255 0 min 28,1 klux 192 W/m
26.04.2016 12:24 6,0 C 9,1 C 6,2 C 74 % 997,8 hPa 0,0 l/m 41,8 km/h (6 Bft) W22.5 260 0 min 22,5 klux 154 W/m
26.04.2016 12:29 6,2 C 10,2 C 6,2 C 72 % 997,8 hPa 0,0 l/m 40,4 km/h (6 Bft) W45 275 0 min 22,5 klux 154 W/m
26.04.2016 12:34 6,4 C 11,6 C 6,3 C 72 % 997,8 hPa 0,0 l/m 43,4 km/h (6 Bft) W-SW67.5 245 0 min 32,4 klux 222 W/m
26.04.2016 12:40 6,4 C 11,8 C 6,4 C 72 % 997,8 hPa 0,0 l/m 40,2 km/h (6 Bft) W-SW67.5 250 0 min 44,2 klux 302 W/m
26.04.2016 12:45 6,4 C 11,5 C 6,5 C 71 % 997,8 hPa 0,0 l/m 40,8 km/h (6 Bft) W45 260 0 min 38,0 klux 260 W/m
26.04.2016 12:49 7,1 C 14,6 C 6,7 C 72 % 997,8 hPa 0,0 l/m 39,6 km/h (6 Bft) W-SW45 250 4 min 111 klux 759 W/m
26.04.2016 12:54 7,1 C 16,2 C 6,8 C 71 % 997,8 hPa 0,0 l/m 42,8 km/h (6 Bft) W22.5 265 5 min 98,4 klux 673 W/m
26.04.2016 12:59 7,3 C 17,7 C 6,8 C 70 % 997,8 hPa 0,0 l/m 46,9 km/h (6 Bft) W-SW67.5 250 5 min 107 klux 732 W/m
26.04.2016 13:04 7,6 C 17,7 C 6,9 C 71 % 997,8 hPa 0,0 l/m 40,7 km/h (6 Bft) SW45 235 5 min 114 klux 780 W/m
26.04.2016 13:09 7,9 C 18,9 C 7,1 C 70 % 997,8 hPa 0,0 l/m 42,2 km/h (6 Bft) W-SW45 250 5 min 114 klux 780 W/m
26.04.2016 13:14 7,7 C 16,8 C 7,1 C 70 % 997,8 hPa 0,0 l/m 49,1 km/h (7 Bft) W-SW45 240 0 min 32,8 klux 224 W/m
26.04.2016 13:19 7,8 C 17,4 C 7,2 C 68 % 997,8 hPa 0,0 l/m 46,6 km/h (6 Bft) W-SW45 245 0 min 36,4 klux 249 W/m
26.04.2016 13:25 7,2 C 13,6 C 6,9 C 68 % 997,8 hPa 0,0 l/m 52,8 km/h (7 Bft) W-SW22.5 240 0 min 39,1 klux 267 W/m
26.04.2016 13:30 7,2 C 13,2 C 7,2 C 69 % 997,8 hPa 0,0 l/m 40,1 km/h (6 Bft) W22.5 275 0 min 38,1 klux 261 W/m
26.04.2016 13:34 7,6 C 13,8 C 7,1 C 69 % 997,8 hPa 0,0 l/m 38,7 km/h (6 Bft) SW67.5 230 0 min 38,1 klux 261 W/m
26.04.2016 13:39 7,6 C 14,1 C 7,1 C 67 % 997,8 hPa 0,0 l/m 46,7 km/h (6 Bft) W22.5 260 0 min 38,1 klux 261 W/m
26.04.2016 13:44 7,9 C 16,6 C 7,1 C 66 % 997,8 hPa 0,0 l/m 39,4 km/h (6 Bft) W-SW22.5 250 5 min 105 klux 718 W/m
26.04.2016 13:50 8,0 C 16,3 C 7,1 C 68 % 997,8 hPa 0,0 l/m 35,6 km/h (5 Bft) W45 265 6 min 63,9 klux 437 W/m
26.04.2016 13:55 6,8 C 13,3 C 7,2 C 69 % 997,8 hPa 0,0 l/m 57,1 km/h (7 Bft) W45 270 5 min 63,9 klux 437 W/m
26.04.2016 13:59 4,8 C 13,3 C 6,8 C 74 % 997,8 hPa 0,4 l/m 48,2 km/h (6 Bft) W-NW22.5 295 0 min 2,97 klux 20 W/m
26.04.2016 14:04 4,1 C 4,1 C 6,6 C 78 % 997,8 hPa 0,1 l/m 38,2 km/h (6 Bft) W-NW22.5 295 0 min 37,4 klux 256 W/m
26.04.2016 14:10 4,9 C 10,0 C 6,7 C 80 % 997,8 hPa 0,1 l/m 42,4 km/h (6 Bft) NW22.5 305 6 min 65,4 klux 447 W/m
26.04.2016 14:14 6,2 C 16,2 C 6,8 C 79 % 997,8 hPa 0,0 l/m 27,7 km/h (5 Bft) W-SW45 250 4 min 93,2 klux 637 W/m
26.04.2016 14:19 6,8 C 17,9 C 7,0 C 80 % 997,8 hPa 0,0 l/m 30,7 km/h (5 Bft) W-SW45 255 5 min 101 klux 691 W/m
26.04.2016 14:24 7,5 C 21,5 C 7,2 C 78 % 997,8 hPa 0,0 l/m 35,9 km/h (5 Bft) W-SW67.5 255 5 min 101 klux 691 W/m
26.04.2016 14:29 7,6 C 20,7 C 7,3 C 76 % 997,8 hPa 0,0 l/m 41,3 km/h (6 Bft) W-SW45 245 5 min 117 klux 800 W/m
26.04.2016 14:35 7,9 C 17,8 C 7,5 C 74 % 997,8 hPa 0,0 l/m 42,6 km/h (6 Bft) W45 260 0 min 43,1 klux 295 W/m
26.04.2016 14:39 7,8 C 16,8 C 7,5 C 72 % 997,8 hPa 0,0 l/m 41,2 km/h (6 Bft) W-SW45 240 0 min 22,7 klux 155 W/m
26.04.2016 14:44 7,3 C 13,4 C 7,3 C 71 % 997,8 hPa 0,0 l/m 38,2 km/h (6 Bft) W-SW45 255 0 min 22,7 klux 155 W/m
26.04.2016 14:49 6,5 C 7,2 C 7,2 C 69 % 997,8 hPa 0,0 l/m 39,2 km/h (6 Bft) NW45 320 0 min 6,21 klux 42 W/m
26.04.2016 14:54 4,4 C 3,9 C 6,8 C 73 % 998,8 hPa 0,0 l/m 31,6 km/h (5 Bft) NW45 305 0 min 2,64 klux 18 W/m
26.04.2016 15:00 3,5 C 1,5 C 6,2 C 76 % 998,8 hPa 0,1 l/m 37,9 km/h (6 Bft) W-NW45 300 0 min 3,02 klux 21 W/m
26.04.2016 15:04 2,5 C 0,9 C 6,0 C 80 % 998,8 hPa 0,1 l/m 39,4 km/h (6 Bft) NW22.5 305 0 min 1,99 klux 14 W/m
26.04.2016 15:09 1,9 C 0,8 C 5,8 C 81 % 998,8 hPa 0,2 l/m 46,8 km/h (6 Bft) W-NW45 300 0 min 1,99 klux 14 W/m
26.04.2016 15:15 1,6 C 0,5 C 6,2 C 84 % 998,8 hPa 0,0 l/m 33,1 km/h (5 Bft) W-NW22.5 290 0 min 1,73 klux 12 W/m
26.04.2016 15:20 1,8 C 0,8 C 6,1 C 85 % 998,8 hPa 0,4 l/m 37,7 km/h (5 Bft) W45 270 0 min 1,73 klux 12 W/m
26.04.2016 15:24 2,1 C 1,0 C 6,0 C 85 % 998,8 hPa 0,7 l/m 38,8 km/h (6 Bft) W22.5 275 0 min 1,73 klux 12 W/m
26.04.2016 15:29 2,4 C 1,2 C 6,2 C 84 % 998,8 hPa 0,6 l/m 36,8 km/h (5 Bft) W22.5 280 0 min 1,73 klux 12 W/m
26.04.2016 15:34 2,7 C 1,6 C 6,3 C 84 % 998,8 hPa 0,5 l/m 30,7 km/h (5 Bft) W-NW45 285 0 min 27,1 klux 185 W/m
26.04.2016 15:39 3,1 C 3,0 C 6,5 C 84 % 998,8 hPa 0,5 l/m 27,1 km/h (5 Bft) W-NW22.5 285 0 min 27,1 klux 185 W/m
26.04.2016 15:45 4,2 C 3,8 C 6,5 C 84 % 998,8 hPa 0,4 l/m 28,0 km/h (5 Bft) W45 265 6 min 88,8 klux 607 W/m
26.04.2016 15:49 4,6 C 7,0 C 6,9 C 82 % 998,8 hPa 0,4 l/m 25,7 km/h (4 Bft) W22.5 270 4 min 88,8 klux 607 W/m
26.04.2016 15:54 5,2 C 13,5 C 7,1 C 83 % 998,8 hPa 0,4 l/m 28,7 km/h (5 Bft) W45 275 5 min 85,3 klux 583 W/m
26.04.2016 15:59 5,8 C 14,0 C 7,1 C 81 % 998,8 hPa 0,2 l/m 26,6 km/h (4 Bft) W-NW45 285 0 min 24,4 klux 167 W/m
26.04.2016 16:05 5,8 C 10,8 C 7,1 C 80 % 998,8 hPa 0,1 l/m 37,4 km/h (5 Bft) W22.5 265 0 min 20,4 klux 140 W/m
26.04.2016 16:09 5,7 C 9,7 C 6,9 C 79 % 998,8 hPa 0,0 l/m 38,6 km/h (6 Bft) W45 260 0 min 20,4 klux 140 W/m
26.04.2016 16:14 5,6 C 8,0 C 6,7 C 78 % 998,8 hPa 0,1 l/m 41,7 km/h (6 Bft) W67.5 260 0 min 11,4 klux 78 W/m
26.04.2016 16:19 5,3 C 7,2 C 6,6 C 78 % 998,8 hPa 0,1 l/m 38,2 km/h (6 Bft) W-SW67.5 240 0 min 11,4 klux 78 W/m
26.04.2016 16:25 5,1 C 6,0 C 6,7 C 78 % 998,8 hPa 0,0 l/m 46,3 km/h (6 Bft) W-SW45 255 0 min 11,4 klux 78 W/m
26.04.2016 16:30 4,8 C 5,0 C 6,6 C 79 % 998,8 hPa 0,0 l/m 43,6 km/h (6 Bft) W45 280 0 min 11,4 klux 78 W/m
26.04.2016 16:34 4,7 C 4,8 C 6,6 C 78 % 998,8 hPa 0,1 l/m 50,1 km/h (7 Bft) W-NW45 285 0 min 7,76 klux 53 W/m
26.04.2016 16:39 4,6 C 5,1 C 6,7 C 78 % 998,8 hPa 0,0 l/m 29,0 km/h (5 Bft) W-NW45 300 0 min 7,76 klux 53 W/m
26.04.2016 16:44 4,8 C 6,6 C 6,7 C 79 % 998,8 hPa 0,0 l/m 27,5 km/h (5 Bft) W22.5 265 0 min 7,76 klux 53 W/m
26.04.2016 16:50 5,4 C 7,6 C 6,7 C 80 % 998,8 hPa 0,0 l/m 28,5 km/h (5 Bft) W45 275 0 min 7,76 klux 53 W/m
26.04.2016 16:55 5,5 C 8,6 C 6,7 C 79 % 998,8 hPa 0,1 l/m 28,3 km/h (5 Bft) W-SW45 240 0 min 7,76 klux 53 W/m
26.04.2016 16:59 5,2 C 7,9 C 6,6 C 78 % 998,8 hPa 0,0 l/m 32,4 km/h (5 Bft) SW45 235 0 min 7,76 klux 53 W/m
26.04.2016 17:04 5,3 C 7,7 C 6,6 C 79 % 998,8 hPa 0,0 l/m 29,2 km/h (5 Bft) W-SW45 250 0 min 19,5 klux 133 W/m
26.04.2016 17:10 5,3 C 7,7 C 6,7 C 78 % 998,8 hPa 0,0 l/m 26,5 km/h (4 Bft) W22.5 260 0 min 19,5 klux 133 W/m
26.04.2016 17:15 5,4 C 7,6 C 6,6 C 79 % 998,8 hPa 0,0 l/m 24,0 km/h (4 Bft) W-SW45 245 0 min 19,5 klux 133 W/m
26.04.2016 17:19 5,2 C 7,8 C 6,7 C 79 % 998,8 hPa 0,0 l/m 30,5 km/h (5 Bft) SW45 230 0 min 19,5 klux 133 W/m
26.04.2016 17:24 5,2 C 7,6 C 6,6 C 79 % 998,8 hPa 0,0 l/m 25,0 km/h (4 Bft) SW22.5 230 0 min 17,7 klux 121 W/m
26.04.2016 17:29 5,1 C 7,0 C 6,6 C 79 % 998,8 hPa 0,0 l/m 30,9 km/h (5 Bft) SW22.5 230 0 min 17,7 klux 121 W/m
26.04.2016 17:35 5,2 C 7,0 C 6,5 C 79 % 998,8 hPa 0,0 l/m 28,0 km/h (5 Bft) SW45 220 0 min 17,7 klux 121 W/m
26.04.2016 17:40 5,2 C 7,2 C 6,6 C 80 % 998,8 hPa 0,0 l/m 26,3 km/h (4 Bft) SW22.5 235 0 min 23,2 klux 159 W/m
26.04.2016 17:44 5,4 C 7,6 C 6,7 C 79 % 998,8 hPa 0,0 l/m 27,6 km/h (5 Bft) SW45 230 0 min 25,7 klux 176 W/m
26.04.2016 17:49 5,5 C 8,2 C 6,7 C 79 % 998,8 hPa 0,0 l/m 25,8 km/h (4 Bft) SW67.5 225 0 min 25,7 klux 176 W/m
26.04.2016 17:54 5,6 C 8,8 C 6,8 C 78 % 998,8 hPa 0,0 l/m 29,5 km/h (5 Bft) W-SW45 240 0 min 31,9 klux 218 W/m
26.04.2016 18:00 5,6 C 8,8 C 6,8 C 78 % 998,8 hPa 0,0 l/m 30,8 km/h (5 Bft) SW22.5 230 0 min 19,8 klux 135 W/m
26.04.2016 18:04 5,7 C 8,1 C 6,9 C 78 % 998,8 hPa 0,0 l/m 30,8 km/h (5 Bft) SW22.5 230 0 min 19,8 klux 135 W/m
26.04.2016 18:09 5,6 C 6,9 C 6,7 C 78 % 998,8 hPa 0,0 l/m 32,7 km/h (5 Bft) SW45 235 0 min 19,8 klux 135 W/m
26.04.2016 18:14 5,6 C 6,5 C 6,7 C 78 % 998,8 hPa 0,0 l/m 35,2 km/h (5 Bft) W-SW45 250 0 min 19,8 klux 135 W/m
26.04.2016 18:20 5,6 C 6,1 C 6,7 C 78 % 998,8 hPa 0,0 l/m 35,4 km/h (5 Bft) SW45 225 0 min 4,77 klux 33 W/m
26.04.2016 18:24 5,5 C 5,9 C 6,8 C 78 % 998,8 hPa 0,0 l/m 35,1 km/h (5 Bft) SW45 235 0 min 6,14 klux 42 W/m
26.04.2016 18:29 5,4 C 5,9 C 6,7 C 78 % 998,8 hPa 0,0 l/m 26,8 km/h (4 Bft) SW45 230 0 min 8,33 klux 57 W/m
26.04.2016 18:34 5,4 C 6,2 C 6,7 C 79 % 998,8 hPa 0,0 l/m 29,5 km/h (5 Bft) SW22.5 230 0 min 8,33 klux 57 W/m
26.04.2016 18:39 5,4 C 7,3 C 6,8 C 79 % 998,8 hPa 0,0 l/m 35,5 km/h (5 Bft) W-SW22.5 245 0 min 22,9 klux 157 W/m
26.04.2016 18:45 5,8 C 7,8 C 6,9 C 79 % 998,8 hPa 0,0 l/m 23,4 km/h (4 Bft) W-SW22.5 250 0 min 22,9 klux 157 W/m
26.04.2016 18:49 6,1 C 8,4 C 6,9 C 76 % 998,8 hPa 0,0 l/m 36,2 km/h (5 Bft) W-SW22.5 245 4 min 28,0 klux 192 W/m
26.04.2016 18:54 6,1 C 10,6 C 7,0 C 76 % 998,8 hPa 0,0 l/m 30,8 km/h (5 Bft) W22.5 260 5 min 28,0 klux 192 W/m
26.04.2016 18:59 6,9 C 11,5 C 7,0 C 72 % 998,8 hPa 0,0 l/m 31,6 km/h (5 Bft) W-SW45 255 5 min 28,0 klux 192 W/m
26.04.2016 19:05 7,1 C 11,7 C 7,0 C 69 % 998,8 hPa 0,0 l/m 42,2 km/h (6 Bft) W-SW45 255 6 min 40,3 klux 276 W/m
26.04.2016 19:09 7,1 C 10,7 C 7,1 C 68 % 998,8 hPa 0,0 l/m 50,4 km/h (7 Bft) W-NW45 285 4 min 30,7 klux 210 W/m
26.04.2016 19:14 7,0 C 9,6 C 7,0 C 67 % 998,8 hPa 0,0 l/m 36,9 km/h (5 Bft) W-NW22.5 285 5 min 32,4 klux 222 W/m
26.04.2016 19:19 6,8 C 8,7 C 7,0 C 72 % 998,8 hPa 0,0 l/m 29,8 km/h (5 Bft) W-SW45 240 0 min 7,65 klux 52 W/m
26.04.2016 19:25 6,4 C 7,9 C 7,0 C 74 % 998,8 hPa 0,0 l/m 24,6 km/h (4 Bft) SW45 230 0 min 8,32 klux 57 W/m
26.04.2016 19:30 6,0 C 6,8 C 6,9 C 74 % 998,8 hPa 0,0 l/m 37,9 km/h (6 Bft) SW45 220 0 min 4,53 klux 31 W/m
26.04.2016 19:34 5,7 C 6,0 C 6,9 C 76 % 998,8 hPa 0,0 l/m 30,3 km/h (5 Bft) SW45 225 0 min 4,53 klux 31 W/m
26.04.2016 19:39 5,5 C 5,6 C 6,8 C 77 % 998,8 hPa 0,0 l/m 32,2 km/h (5 Bft) SW45 230 0 min 3,03 klux 21 W/m
26.04.2016 19:44 5,4 C 5,3 C 6,8 C 78 % 998,8 hPa 0,0 l/m 29,5 km/h (5 Bft) SW22.5 230 0 min 3,03 klux 21 W/m
26.04.2016 19:50 5,3 C 5,1 C 6,8 C 78 % 998,8 hPa 0,0 l/m 28,0 km/h (5 Bft) SW67.5 235 0 min 3,03 klux 21 W/m
26.04.2016 19:55 5,2 C 5,1 C 6,8 C 78 % 998,8 hPa 0,0 l/m 20,5 km/h (4 Bft) SW45 230 0 min 2,00 klux 14 W/m
26.04.2016 19:59 5,2 C 4,9 C 6,8 C 79 % 998,8 hPa 0,0 l/m 22,6 km/h (4 Bft) SW45 225 0 min 559 lux 4 W/m
26.04.2016 20:04 5,3 C 4,8 C 6,8 C 79 % 998,8 hPa 0,0 l/m 28,1 km/h (5 Bft) SW45 225 0 min 255 lux 2 W/m
26.04.2016 20:10 5,3 C 4,6 C 6,8 C 80 % 998,8 hPa 0,0 l/m 30,8 km/h (5 Bft) SW45 235 0 min 237 lux 2 W/m
26.04.2016 20:15 5,2 C 4,4 C 6,8 C 81 % 998,8 hPa 0,2 l/m 21,8 km/h (4 Bft) W45 260 0 min 265 lux 2 W/m
26.04.2016 20:19 4,6 C 3,5 C 6,7 C 79 % 999,8 hPa 0,4 l/m 32,5 km/h (5 Bft) W-NW45 295 0 min 3,02 klux 21 W/m
26.04.2016 20:24 4,2 C 3,7 C 6,8 C 80 % 999,8 hPa 0,1 l/m 32,0 km/h (5 Bft) W-NW22.5 285 5 min 3,72 klux 25 W/m
26.04.2016 20:29 4,4 C 3,7 C 6,7 C 81 % 999,8 hPa 0,0 l/m 30,5 km/h (5 Bft) W45 265 5 min 3,72 klux 25 W/m
26.04.2016 20:35 4,4 C 3,4 C 6,7 C 81 % 998,8 hPa 0,0 l/m 22,8 km/h (4 Bft) W45 270 6 min 3,72 klux 25 W/m
26.04.2016 20:40 4,3 C 3,0 C 6,6 C 81 % 999,8 hPa 0,0 l/m 28,8 km/h (5 Bft) W-SW45 250 0 min 1,03 klux 7 W/m
26.04.2016 20:44 4,3 C 2,8 C 6,6 C 80 % 999,8 hPa 0,0 l/m 29,0 km/h (5 Bft) W-SW45 250 0 min 484 lux 0 W/m
26.04.2016 20:49 4,3 C 3,0 C 6,5 C 80 % 999,8 hPa 0,0 l/m 24,2 km/h (4 Bft) W-SW45 250 0 min 286 lux 0 W/m
26.04.2016 20:54 4,3 C 2,9 C 6,6 C 81 % 999,8 hPa 0,0 l/m 24,0 km/h (4 Bft) W22.5 260 0 min 176 lux 0 W/m
26.04.2016 21:00 4,3 C 2,9 C 6,5 C 80 % 999,8 hPa 0,0 l/m 28,2 km/h (5 Bft) W22.5 265 0 min 176 lux 0 W/m
26.04.2016 21:04 4,4 C 3,3 C 6,6 C 79 % 999,8 hPa 0,0 l/m 31,6 km/h (5 Bft) W45 260 0 min 31 lux 0 W/m
26.04.2016 21:09 4,4 C 3,3 C 6,5 C 79 % 999,8 hPa 0,0 l/m 24,3 km/h (4 Bft) W-SW22.5 255 0 min 31 lux 0 W/m
26.04.2016 21:14 4,3 C 3,0 C 6,6 C 79 % 999,8 hPa 0,0 l/m 27,6 km/h (5 Bft) W-SW22.5 255 0 min 22 lux 0 W/m
26.04.2016 21:20 4,3 C 2,8 C 6,5 C 79 % 999,8 hPa 0,0 l/m 29,1 km/h (5 Bft) W-SW45 255 0 min 22 lux 0 W/m
26.04.2016 21:24 4,3 C 2,6 C 6,5 C 79 % 999,8 hPa 0,0 l/m 27,6 km/h (5 Bft) W-SW45 250 0 min 22 lux 0 W/m
26.04.2016 21:29 4,2 C 2,7 C 6,5 C 79 % 999,8 hPa 0,0 l/m 30,1 km/h (5 Bft) W-SW22.5 240 0 min 22 lux 0 W/m
26.04.2016 21:34 4,1 C 2,6 C 6,4 C 79 % 999,8 hPa 0,0 l/m 25,5 km/h (4 Bft) W-SW45 245 0 min 0 lux 0 W/m
26.04.2016 21:39 4,1 C 2,6 C 6,4 C 79 % 999,8 hPa 0,0 l/m 26,0 km/h (4 Bft) W-SW22.5 250 0 min 0 lux 0 W/m
26.04.2016 21:45 4,1 C 2,9 C 6,4 C 79 % 999,8 hPa 0,0 l/m 30,3 km/h (5 Bft) W-SW45 245 0 min 0 lux 0 W/m
26.04.2016 21:49 4,2 C 3,0 C 6,3 C 79 % 999,8 hPa 0,0 l/m 30,6 km/h (5 Bft) W-SW22.5 245 0 min 0 lux 0 W/m
26.04.2016 21:54 4,1 C 3,0 C 6,3 C 79 % 999,8 hPa 0,0 l/m 33,7 km/h (5 Bft) W-SW67.5 240 0 min 0 lux 0 W/m
26.04.2016 21:59 4,1 C 2,6 C 6,2 C 80 % 999,8 hPa 0,0 l/m 33,7 km/h (5 Bft) W-SW45 250 0 min 0 lux 0 W/m
26.04.2016 22:05 4,0 C 2,8 C 6,2 C 80 % 999,8 hPa 0,0 l/m 33,5 km/h (5 Bft) W-SW67.5 240 0 min 0 lux 0 W/m
26.04.2016 22:09 3,9 C 2,8 C 6,2 C 80 % 999,8 hPa 0,0 l/m 40,1 km/h (6 Bft) W-SW45 240 0 min 0 lux 0 W/m
26.04.2016 22:14 3,9 C 2,6 C 6,1 C 80 % 999,8 hPa 0,0 l/m 32,3 km/h (5 Bft) W-SW45 240 0 min 0 lux 0 W/m
26.04.2016 22:19 3,9 C 2,6 C 6,1 C 81 % 999,8 hPa 0,0 l/m 40,9 km/h (6 Bft) W-SW22.5 250 0 min 0 lux 0 W/m
26.04.2016 22:25 3,7 C 2,6 C 6,1 C 81 % 999,8 hPa 0,0 l/m 43,7 km/h (6 Bft) W-SW45 245 0 min 0 lux 0 W/m
26.04.2016 22:30 3,7 C 2,8 C 6,0 C 81 % 999,8 hPa 0,0 l/m 28,8 km/h (5 Bft) W-SW45 240 0 min 0 lux 0 W/m
26.04.2016 22:34 3,6 C 2,8 C 6,1 C 82 % 999,8 hPa 0,0 l/m 37,3 km/h (5 Bft) W-SW45 245 0 min 0 lux 0 W/m
26.04.2016 22:39 3,5 C 2,7 C 6,0 C 82 % 999,8 hPa 0,0 l/m 36,2 km/h (5 Bft) W-SW22.5 250 0 min 0 lux 0 W/m
26.04.2016 22:44 3,5 C 2,5 C 6,1 C 83 % 999,8 hPa 0,0 l/m 39,2 km/h (6 Bft) W-SW22.5 255 0 min 0 lux 0 W/m
26.04.2016 22:50 3,4 C 2,6 C 6,0 C 82 % 999,8 hPa 0,0 l/m 37,3 km/h (5 Bft) W-SW22.5 240 0 min 0 lux 0 W/m
26.04.2016 22:55 3,4 C 2,8 C 6,0 C 83 % 999,8 hPa 0,0 l/m 36,3 km/h (5 Bft) W-SW45 250 0 min 0 lux 0 W/m
26.04.2016 22:59 3,4 C 2,9 C 6,0 C 83 % 999,8 hPa 0,0 l/m 31,6 km/h (5 Bft) W-SW22.5 250 0 min 0 lux 0 W/m
26.04.2016 23:05 3,4 C 2,9 C 5,9 C 83 % 999,8 hPa 0,0 l/m 36,4 km/h (5 Bft) W-SW22.5 245 0 min 0 lux 0 W/m
26.04.2016 23:10 3,3 C 2,8 C 6,0 C 83 % 999,8 hPa 0,0 l/m 39,6 km/h (6 Bft) W-SW45 255 0 min 0 lux 0 W/m
26.04.2016 23:14 3,4 C 2,8 C 5,9 C 83 % 999,8 hPa 0,0 l/m 36,3 km/h (5 Bft) SW45 235 0 min 0 lux 0 W/m
26.04.2016 23:19 3,4 C 2,8 C 5,9 C 83 % 999,8 hPa 0,0 l/m 40,3 km/h (6 Bft) W-SW45 240 0 min 0 lux 0 W/m
26.04.2016 23:24 3,4 C 2,8 C 5,8 C 83 % 999,8 hPa 0,0 l/m 31,6 km/h (5 Bft) W22.5 260 0 min 0 lux 0 W/m
26.04.2016 23:30 3,3 C 2,7 C 5,8 C 83 % 999,8 hPa 0,0 l/m 40,5 km/h (6 Bft) W-SW22.5 250 0 min 0 lux 0 W/m
26.04.2016 23:35 3,3 C 2,6 C 5,8 C 83 % 999,8 hPa 0,0 l/m 38,0 km/h (6 Bft) SW45 235 0 min 0 lux 0 W/m
26.04.2016 23:39 3,3 C 2,7 C 5,8 C 83 % 999,8 hPa 0,0 l/m 35,1 km/h (5 Bft) W-SW45 240 0 min 0 lux 0 W/m
26.04.2016 23:44 3,3 C 2,6 C 5,8 C 83 % 999,8 hPa 0,0 l/m 41,5 km/h (6 Bft) SW22.5 235 0 min 0 lux 0 W/m
26.04.2016 23:49 3,3 C 2,6 C 5,8 C 83 % 999,8 hPa 0,1 l/m 37,5 km/h (5 Bft) W-SW45 250 0 min 0 lux 0 W/m
26.04.2016 23:55 3,3 C 2,7 C 5,8 C 83 % 999,8 hPa 0,0 l/m 32,9 km/h (5 Bft) W-SW22.5 245 0 min 0 lux 0 W/m
26.04.2016 23:59 3,3 C 2,8 C 5,8 C 83 % 999,8 hPa 0,0 l/m 38,6 km/h (6 Bft) W-SW45 240 0 min 0 lux 0 W/m
_ Min-Zeit 05:15 04:34 05:59 13:44 13:50 - 01:35 - - - - -
Minimum _ 1,5 C -0,1 C 3,8 C 66 % 997,8 hPa - 15,6 km/h (3 Bft) - - - - -
_ Max-Zeit 13:50 14:24 14:35 00:05 01:49 15:24 13:55 - - 08:25 14:29 14:29
Maximum _ 8,0 C 21,5 C 7,5 C 87 % 1000,8 hPa 0,7 l/m 57,1 km/h
W (7 Bft)
- - 6 min 117 klux 800 W/m
Durchschnitt _ 4,1 C 5,1 C 5,8 C 80 % 998,9 hPa #6,7 l/m 31,3 km/h (5 Bft) W-SW - #2:42 h 14,2 klux 162 W/m